Weather History for Miles City, MT

Change the Weather History Date:

Monday, April 8, 2013

  Actual Average Record
Temperature  
Mean Temperature 26 °F 43 °F  
Max Temperature 35 °F 1977 °F 80 °F (1977)
Min Temperature 17 °F 1997 °F 5 °F (1997)
Degree Days  
Heating Degree Days 39 22  
Month to date heating degree days 155 183  
Since 1 July heating degree days 6325 6858  
Cooling Degree Days 0 0  
Month to date cooling degree days 0 0  
Year to date cooling degree days 0 0  
Moisture  
Dew Point 19 °F    
Average Humidity 79    
Maximum Humidity 92    
Minimum Humidity 65    
Precipitation  
Precipitation 0.22 in 0.04 in 0.54 in (1991)
Month to date precipitation 0.27 0.27  
Year to date precipitation 0.83 1.42  
Sea Level Pressure  
Sea Level Pressure 30.07 in    
Wind  
Wind Speed 17 mph (North)    
Max Wind Speed 28 mph    
Max Gust Speed 31 mph    
Visibility 6 miles    
Events Fog , Snow    
T = Trace of Precipitation, MM = Missing Value Source: NWS Daily Summary

Daily Weather History Graph

Daily Weather History Graph

Search for Another Location

Airport:

Trip Planner

Search our weather history database for the weather conditions in past years. The results will help you decide how hot, cold, wet, or windy it might be!

Date:

Astronomy

Apr. 08, 2013 Rise Set
Actual Time 6:29 AM MDT 7:42 PM MDT
Civil Twilight 5:58 AM MDT 8:13 PM MDT
Nautical Twilight 5:20 AM MDT 8:50 PM MDT
Astronomical Twilight 4:41 AM MDT 9:30 PM MDT
Moon 5:25 AM MDT (4/8) 6:16 PM MDT (4/8)
Length of Visible Light 14h 15m
Length of Day
13h 13m
Waning Crescent, 3% of the Moon is Illuminated
Apr 8
Waning Crescent
Apr 10
New
Apr 18
First Quarter
Apr 25
Full
May 2
Last Quarter

Hourly Weather History & Observations

Time (MDT) Temp. Windchill Dew Point Humidity Pressure Visibility Wind Dir Wind Speed Gust Speed Precip Events Conditions
12:53 AM 36.0 °F 24.7 °F 30.0 °F 79% 29.72 in 10.0 mi NE 21.9 mph 31.1 mph N/A   Overcast
1:53 AM 34.0 °F 22.4 °F 28.9 °F 82% 29.73 in 10.0 mi NNE 20.7 mph - 0.00 in   Overcast
2:53 AM 32.0 °F 19.2 °F 28.9 °F 88% 29.75 in 2.5 mi NNE 23.0 mph 28.8 mph 0.00 in Snow Light Snow
3:04 AM 30.2 °F 17.8 °F 28.4 °F 93% 29.73 in 1.5 mi NNE 19.6 mph 28.8 mph 0.00 in Snow Light Snow
3:45 AM 30.2 °F 18.5 °F 26.6 °F 86% 29.75 in 0.8 mi North 17.3 mph 24.2 mph 0.02 in Snow Light Snow
3:53 AM 28.9 °F 16.5 °F 26.1 °F 89% 29.78 in 0.8 mi North 18.4 mph - 0.02 in Snow Light Snow
4:53 AM 27.0 °F 14.3 °F 25.0 °F 92% 29.85 in 0.5 mi NNW 17.3 mph - 0.06 in Fog , Snow Snow
5:00 AM 26.6 °F 13.8 °F 24.8 °F 93% 29.82 in 0.2 mi NNW 17.3 mph - 0.01 in Fog , Snow Heavy Snow
5:08 AM 26.6 °F 14.3 °F 24.8 °F 93% 29.83 in 0.2 mi NNW 16.1 mph - 0.03 in Fog , Snow Heavy Snow
5:40 AM 24.8 °F 11.9 °F 21.2 °F 86% 29.84 in 0.5 mi NNW 16.1 mph - 0.06 in Fog , Snow Snow
5:53 AM 25.0 °F 11.7 °F 21.9 °F 88% 29.88 in 0.5 mi North 17.3 mph - 0.08 in Fog , Snow Snow
6:53 AM 24.1 °F 11.5 °F 21.9 °F 91% 29.95 in 0.5 mi NNW 15.0 mph - 0.04 in Fog , Snow Snow
7:07 AM 24.8 °F 12.4 °F 21.2 °F 86% 29.92 in 0.2 mi NNW 15.0 mph - 0.01 in Fog , Snow Heavy Snow
7:23 AM 24.8 °F 12.4 °F 21.2 °F 86% 29.93 in 0.5 mi NNW 15.0 mph - 0.01 in Fog , Snow Snow
7:34 AM 24.8 °F 10.3 °F 21.2 °F 86% 29.95 in 1.0 mi NNW 20.7 mph - 0.02 in Snow Light Snow
7:53 AM 25.0 °F 10.9 °F 19.9 °F 81% 30.00 in 1.0 mi NNW 19.6 mph - 0.02 in Snow Light Snow
8:24 AM 24.8 °F 10.7 °F 19.4 °F 80% 29.96 in 2.0 mi North 19.6 mph - 0.00 in Snow Light Snow
8:40 AM 24.8 °F 11.1 °F 19.4 °F 80% 29.96 in 3.0 mi North 18.4 mph 28.8 mph 0.00 in Snow Light Snow
8:53 AM 25.0 °F 10.2 °F 19.0 °F 78% 30.03 in 2.5 mi North 21.9 mph - 0.00 in Snow Light Snow
9:45 AM 24.8 °F 12.4 °F 19.4 °F 80% 30.03 in 4.0 mi North 15.0 mph 23.0 mph 0.00 in Snow Light Snow
9:53 AM 25.0 °F 11.3 °F 18.0 °F 75% 30.10 in 6.0 mi North 18.4 mph 24.2 mph 0.00 in Snow Light Snow
10:53 AM 25.0 °F 10.6 °F 17.1 °F 72% 30.13 in 9.0 mi North 20.7 mph - 0.00 in Snow Light Snow
11:53 AM 25.0 °F 9.9 °F 17.1 °F 72% 30.16 in 10.0 mi NNE 23.0 mph - 0.00 in   Overcast
12:14 PM 24.8 °F 9.3 °F 17.6 °F 74% 30.08 in 10.0 mi North 24.2 mph - 0.00 in   Overcast
12:36 PM 26.6 °F 11.7 °F 17.6 °F 69% 30.09 in 10.0 mi NNE 24.2 mph - 0.00 in   Overcast
12:53 PM 25.0 °F 10.2 °F 18.0 °F 75% 30.18 in 10.0 mi NNE 21.9 mph 29.9 mph 0.00 in   Overcast
1:53 PM 24.1 °F 9.4 °F 17.1 °F 75% 30.22 in 10.0 mi NNE 20.7 mph - 0.00 in   Overcast
2:53 PM 25.0 °F 10.2 °F 17.1 °F 72% 30.23 in 8.0 mi NNE 21.9 mph 27.6 mph 0.00 in Snow Light Snow
3:53 PM 25.0 °F 10.9 °F 16.0 °F 69% 30.26 in 10.0 mi NNE 19.6 mph - 0.00 in   Overcast
4:53 PM 25.0 °F 10.9 °F 15.1 °F 66% 30.29 in 10.0 mi NNE 19.6 mph - N/A   Overcast
5:53 PM 24.1 °F 10.6 °F 12.0 °F 60% 30.32 in 10.0 mi NE 17.3 mph - N/A   Mostly Cloudy
6:00 PM 23.0 °F 10.1 °F 12.2 °F 63% 30.22 in 10.0 mi NE 15.0 mph - N/A   Scattered Clouds
6:28 PM 23.0 °F 10.1 °F 12.2 °F 63% 30.23 in 10.0 mi NNE 15.0 mph - N/A   Mostly Cloudy
6:39 PM 23.0 °F 10.6 °F 12.2 °F 63% 30.24 in 10.0 mi NNE 13.8 mph - N/A   Scattered Clouds
6:53 PM 23.0 °F 10.1 °F 12.0 °F 63% 30.35 in 10.0 mi NNE 15.0 mph - N/A   Partly Cloudy
7:28 PM 21.2 °F 8.3 °F 12.2 °F 68% 30.26 in 10.0 mi NNE 13.8 mph - N/A   Mostly Cloudy
7:53 PM 21.9 °F 8.7 °F 12.0 °F 66% 30.38 in 10.0 mi NNE 15.0 mph - N/A   Overcast
8:53 PM 21.0 °F 8.6 °F 12.0 °F 68% 30.42 in 10.0 mi NNE 12.7 mph - N/A   Mostly Cloudy
9:53 PM 19.9 °F 10.1 °F 10.9 °F 68% 30.44 in 10.0 mi NE 8.1 mph - N/A   Partly Cloudy
10:53 PM 19.0 °F 9.0 °F 10.9 °F 71% 30.46 in 10.0 mi NE 8.1 mph - N/A   Scattered Clouds
11:53 PM 18.0 °F 6.9 °F 10.9 °F 74% 30.46 in 10.0 mi NNE 9.2 mph - N/A   Mostly Cloudy